Location: Anmer
(52.8333°N, 0.5833°E)
Time: 07:36:35
(UTC+00:00)

Helios 1B - Pass Details

Date: 15 May 2026
Orbit: 603 x 606 km, 98.2° (Epoch: 6 June)

Event Time Altitude Azimuth Distance (km) Brightness Sun altitude
Rises 23:40:24 0° 14° (NNE) 2,873 9.4 -18.1°
Reaches altitude 10° 23:42:35 10° 15° (NNE) 1,964 8.3 -18.1°
Maximum altitude 23:46:52 90° 119° (ESE) 612 4.4 -18.1°
Enters shadow 23:48:26 39° 196° (SSW) 920 4.9 -18.1°
